FW7161 Weather Reports


Display with metric or nautical units.
time (UTC)temp
F
wind
direction
speed
MPH
gust
MPH
rain 1hr
in
rain 24hr
in
rain mn
in
humidity
%
barometer
mb
20260508141546 47 0 7.0 9.0 0.00 0.00 0.00 77 1022.2
20260508140043 46 297 5.0 6.0 0.00 0.00 0.00 77 1022.4
20260508134543 46 21 4.0 6.0 0.00 0.00 0.00 79 1022.2
20260508133041 47 4 3.0 6.0 0.00 0.00 0.00 77 1021.9
20260508131536 48 358 4.0 5.0 0.00 0.00 0.00 66 1021.3
20260508130032 49 4 1.0 3.0 0.00 0.00 0.00 60 1021.0
20260508124530 47 280 0.0 0.0 0.00 0.00 0.00 64 1020.7
20260508123027 44 284 0.0 0.0 0.00 0.00 0.00 69 1020.5
20260508121525 41 283 0.0 0.0 0.00 0.00 0.00 73 1020.3
20260508120024 41 277 0.0 0.0 0.00 0.00 0.00 73 1020.2
20260508114520 40 293 0.0 0.0 0.00 0.00 0.00 75 1020.3
20260508113017 38 297 0.0 0.0 0.00 0.00 0.00 81 1020.2
20260508111513 37 306 0.0 0.0 0.00 0.00 0.00 79 1020.3
20260508110008 39 30 0.0 0.0 0.00 0.00 0.00 79 1020.0
20260508104505 41 284 0.0 0.0 0.00 0.00 0.00 74 1020.0
20260508103001 42 296 0.0 0.0 0.00 0.00 0.00 74 1019.8
20260508101459 38 273 0.0 0.0 0.00 0.00 0.00 83 1020.0
20260508095956 37 304 0.0 0.0 0.00 0.00 0.00 86 1019.8
20260508094454 37 292 0.0 0.0 0.00 0.00 0.00 86 1020.2
20260508092951 40 297 0.0 0.0 0.00 0.00 0.00 83 1019.9
20260508091449 43 333 0.0 0.0 0.00 0.00 0.00 77 1019.9
20260508085946 42 347 0.0 0.0 0.00 0.00 0.00 78 1020.2
20260508084443 45 348 0.0 0.0 0.00 0.00 0.00 75 1020.0
20260508082938 46 353 1.0 1.0 0.00 0.00 0.00 73 1020.7
20260508081435 47 352 1.0 2.0 0.00 0.00 0.00 71 1020.8
20260508075932 47 356 1.0 3.0 0.00 0.00 0.00 69 1020.8
20260508074430 48 327 0.0 0.0 0.00 0.00 0.00 68 1020.8
20260508072927 48 7 0.0 0.0 0.00 0.00 0.00 67 1020.8
20260508071425 48 359 0.0 0.0 0.00 0.00 0.00 66 1021.0
20260508065923 49 343 0.0 0.0 0.00 0.00 0.00 65 1021.1
20260508064422 49 343 0.0 0.0 0.00 0.00 0.00 65 1020.9
20260508062920 49 10 0.0 0.0 0.00 0.00 0.00 64 1020.7
20260508061418 49 9 0.0 0.0 0.00 0.00 0.00 64 1020.9
20260508055919 48 329 0.0 0.0 0.00 0.00 0.00 67 1020.9
20260508054415 47 336 0.0 0.0 0.00 0.00 0.00 69 1020.9
20260508052913 49 334 0.0 0.0 0.00 0.00 0.00 61 1020.8
20260508051408 50 322 0.0 0.0 0.00 0.00 0.00 61 1020.3
20260508045909 51 14 0.0 0.0 0.00 0.00 0.00 60 1020.5
20260508044407 51 57 0.0 0.0 0.00 0.00 0.00 60 1020.7
20260508042902 53 351 1.0 3.0 0.00 0.00 0.00 54 1020.9
20260508041359 54 342 3.0 6.0 0.00 0.00 0.00 51 1020.9
20260508035856 53 332 0.0 0.0 0.00 0.00 0.00 57 1020.8
20260508034353 55 324 0.0 0.0 0.00 0.00 0.00 55 1020.4
20260508032851 54 309 0.0 0.0 0.00 0.00 0.00 54 1020.4
20260508031348 53 318 0.0 0.0 0.00 0.00 0.00 57 1020.2
20260508025844 53 313 0.0 0.0 0.00 0.00 0.00 56 1019.9
20260508024340 55 292 0.0 0.0 0.00 0.00 0.00 50 1019.8
20260508022836 54 332 0.0 0.0 0.00 0.00 0.00 50 1019.6
20260508021331 56 335 0.0 0.0 0.00 0.00 0.00 44 1019.1
20260508015828 56 305 0.0 0.0 0.00 0.00 0.00 48 1019.3
20260508014325 57 290 0.0 0.0 0.00 0.00 0.00 47 1019.1
20260508012825 60 318 0.0 0.0 0.00 0.00 0.00 40 1019.1
20260508011323 59 194 0.0 0.0 0.00 0.00 0.00 34 1018.8
20260508005821 60 302 0.0 0.0 0.00 0.00 0.00 32 1018.5
20260508004316 61 325 0.0 0.0 0.00 0.00 0.00 36 1018.9
20260508002812 62 318 0.0 0.0 0.00 0.00 0.00 34 1018.7
20260508001307 61 292 0.0 0.0 0.00 0.00 0.00 32 1018.6
20260507235802 62 292 0.0 0.0 0.00 0.00 0.00 30 1018.5
20260507234258 62 316 0.0 0.0 0.00 0.00 0.00 30 1018.7
20260507232756 64 290 3.0 3.0 0.00 0.00 0.00 28 1018.6
20260507231252 65 331 2.0 6.0 0.00 0.00 0.00 26 1018.6
20260507225751 67 323 5.0 7.0 0.00 0.00 0.00 25 1018.7
20260507224246 67 300 5.0 7.0 0.00 0.00 0.00 25 1018.5
20260507222742 66 291 4.0 6.0 0.00 0.00 0.00 30 1018.8
20260507221237 67 26 0.0 0.0 0.00 0.00 0.00 31 1018.7
20260507215734 66 309 5.0 6.0 0.00 0.00 0.00 27 1018.9
20260507214232 67 293 3.0 5.0 0.00 0.00 0.00 27 1019.2
20260507212732 66 324 3.0 6.0 0.00 0.00 0.00 28 1019.2
20260507211227 65 295 5.0 6.0 0.00 0.00 0.00 27 1019.8
20260507205724 65 279 5.0 6.0 0.00 0.00 0.00 28 1019.8
20260507204220 66 261 6.0 6.0 0.00 0.00 0.00 28 1020.0
20260507202717 65 280 4.0 5.0 0.00 0.00 0.00 31 1020.3
20260507201217 64 247 2.0 5.0 0.00 0.00 0.00 28 1020.4
20260507195712 64 279 4.0 5.0 0.00 0.00 0.00 29 1020.7
20260507194208 65 245 1.0 3.0 0.00 0.00 0.00 29 1020.8
20260507192704 64 295 2.0 3.0 0.00 0.00 0.00 29 1020.9
20260507191200 62 281 1.0 2.0 0.00 0.00 0.00 30 1021.1
20260507185659 63 236 0.0 0.0 0.00 0.00 0.00 25 1020.9
20260507184157 62 240 0.0 0.0 0.00 0.00 0.00 24 1021.1
20260507182653 61 252 0.0 0.0 0.00 0.00 0.00 26 1021.4
20260507181148 61 275 0.0 0.0 0.00 0.00 0.00 30 1021.6
20260507175649 61 265 1.0 2.0 0.00 0.00 0.00 26 1021.9
20260507174147 60 287 0.0 3.0 0.00 0.00 0.00 26 1021.7
20260507172643 60 281 3.0 5.0 0.00 0.00 0.00 24 1022.2
20260507171138 59 272 0.0 0.0 0.00 0.00 0.00 25 1022.1
20260507165633 59 272 0.0 0.0 0.00 0.00 0.00 25 1022.5
20260507164129 59 195 0.0 0.0 0.00 0.00 0.00 27 1022.5
20260507162625 57 241 0.0 0.0 0.00 0.00 0.00 29 1022.6
20260507161121 57 264 2.0 3.0 0.00 0.00 0.00 30 1022.7
20260507155621 56 279 3.0 5.0 0.00 0.00 0.00 33 1023.0
20260507154118 55 282 3.0 5.0 0.00 0.00 0.00 36 1022.5
20260507152613 54 277 4.0 7.0 0.00 0.00 0.00 38 1023.0
20260507151109 53 286 4.0 5.0 0.00 0.00 0.00 39 1022.7
20260507145603 52 244 4.0 5.0 0.00 0.00 0.00 39 1022.8
20260507144101 51 275 5.0 6.0 0.00 0.00 0.00 39 1022.7